# Mixing ratio of CO2 (xCO2) in dry air measured onboard R/V Kaiyo of the Japan Marine Sciece and Technology Center (JAMSTEC).,,,,,,,,,,,,,,,,,,,,,,
"# Version 2.0; 29 Feb, 2008.",,,,,,,,,,,,,,,,,,,,,,
# Measured by Meteorological Research Institute. ,,,,,,,,,,,,,,,,,,,,,,
# PI : H. Y. Inoue and M. Ishii,,,,,,,,,,,,,,,,,,,,,,
# Concetrarion scale = MRI87,,,,,,,,,,,,,,,,,,,,,,
# Date and Time = UTC,,,,,,,,,,,,,,,,,,,,,,
Ship,Cruise,Serial No.,Date,,,Time,,Latitude,Longitude,xCO2_Air,F,xCO2_Sea,F,Wind_Dir,Wind_Spd,Atm_Prs,Atm_Tmp.,SST,F,SSS,F,pH2O
,,,Year,Month,Day,Hour,Min.,Deg.,Deg.,ppm,,ppm,,Deg.,m/s,hPa,deg.C,deg.C,,,,hPa
Kaiyo,9511,1,1995,12,23,3,33,12.582,144.689,361.78,2,-9.99,9,-99,-9.9,1009.6,-99.9,28.73,2,-9.999,9,38.9
Kaiyo,9511,2,1995,12,23,3,56,12.511,144.715,-9.99,9,359.58,2,-99,-9.9,1009.3,-99.9,28.73,2,-9.999,9,38.9
Kaiyo,9511,3,1995,12,23,4,33,12.4,144.758,362.26,2,-9.99,9,-99,-9.9,1008.6,-99.9,28.74,2,-9.999,9,38.9
Kaiyo,9511,4,1995,12,23,4,56,12.33,144.782,-9.99,9,358.04,2,-99,-9.9,1008,-99.9,28.75,2,-9.999,9,38.9
Kaiyo,9511,5,1995,12,23,5,33,12.218,144.821,362.14,2,-9.99,9,-99,-9.9,1008.3,-99.9,28.75,2,-9.999,9,38.9
Kaiyo,9511,6,1995,12,23,5,56,12.15,144.844,-9.99,9,355.33,2,-99,-9.9,1008.6,-99.9,28.72,2,33.863,2,38.8
Kaiyo,9511,7,1995,12,23,6,33,12.044,144.882,361.73,2,-9.99,9,-99,-9.9,1008.8,-99.9,28.75,2,-9.999,9,38.9
Kaiyo,9511,8,1995,12,23,6,56,11.978,144.906,-9.99,9,353.01,2,-99,-9.9,1008.9,-99.9,28.76,2,33.851,2,38.9
Kaiyo,9511,9,1995,12,23,7,33,11.869,144.947,361.51,2,-9.99,9,-99,-9.9,1009.6,-99.9,28.82,2,-9.999,9,39.1
Kaiyo,9511,10,1995,12,23,7,56,11.801,144.971,-9.99,9,352.59,2,-99,-9.9,1009.7,-99.9,28.84,2,33.79,2,39.1
Kaiyo,9511,11,1995,12,23,8,33,11.691,145.01,361.45,2,-9.99,9,-99,-9.9,1010,-99.9,28.84,2,-9.999,9,39.1
Kaiyo,9511,12,1995,12,23,8,56,11.624,145.033,-9.99,9,351.51,2,-99,-9.9,1010.5,-99.9,28.84,2,33.734,2,39.1
Kaiyo,9511,13,1995,12,23,9,33,11.517,145.077,361.63,2,-9.99,9,-99,-9.9,1010.5,-99.9,28.93,2,-9.999,9,39.3
Kaiyo,9511,14,1995,12,23,9,56,11.452,145.105,-9.99,9,353.08,2,-99,-9.9,1010.7,-99.9,28.91,2,33.698,2,39.3
Kaiyo,9511,15,1995,12,23,10,33,11.347,145.15,361.73,2,-9.99,9,-99,-9.9,1011.3,-99.9,28.88,2,-9.999,9,39.2
Kaiyo,9511,16,1995,12,23,10,56,11.284,145.177,-9.99,9,355.11,2,-99,-9.9,1010.9,-99.9,28.88,2,33.721,2,39.2
Kaiyo,9511,17,1995,12,23,11,33,11.176,145.212,361.83,2,-9.99,9,-99,-9.9,1011.5,-99.9,28.8,2,-9.999,9,39
Kaiyo,9511,18,1995,12,23,11,56,11.109,145.232,-9.99,9,354.61,2,-99,-9.9,1011.1,-99.9,28.78,2,33.77,2,39
Kaiyo,9511,19,1995,12,23,12,33,10.999,145.267,361.49,2,-9.99,9,-99,-9.9,1011.1,-99.9,28.76,2,-9.999,9,38.9
Kaiyo,9511,20,1995,12,23,12,56,10.933,145.293,-9.99,9,353.76,2,-99,-9.9,1010.9,-99.9,28.76,2,33.795,2,38.9
Kaiyo,9511,21,1995,12,23,13,33,10.826,145.339,361.38,2,-9.99,9,-99,-9.9,1010.5,-99.9,28.85,2,-9.999,9,39.1
Kaiyo,9511,22,1995,12,23,13,56,10.761,145.367,-9.99,9,353.94,2,-99,-9.9,1010.8,-99.9,28.9,2,33.707,2,39.2
Kaiyo,9511,23,1995,12,23,14,33,10.655,145.408,361.52,2,-9.99,9,-99,-9.9,1010.6,-99.9,29,2,-9.999,9,39.5
Kaiyo,9511,24,1995,12,23,14,56,10.59,145.432,-9.99,9,357.32,2,-99,-9.9,1010.9,-99.9,29.04,2,33.686,2,39.6
Kaiyo,9511,25,1995,12,23,15,33,10.484,145.47,361.52,2,-9.99,9,-99,-9.9,1010.1,-99.9,29.04,2,-9.999,9,39.6
Kaiyo,9511,26,1995,12,23,15,56,10.417,145.491,-9.99,9,359.25,2,-99,-9.9,1010.4,-99.9,29.06,2,33.67,2,39.6
Kaiyo,9511,27,1995,12,23,16,33,10.306,145.526,361.43,2,-9.99,9,-99,-9.9,1009.9,-99.9,29.04,2,-9.999,9,39.6
Kaiyo,9511,28,1995,12,23,16,56,10.238,145.547,-9.99,9,360.41,2,-99,-9.9,1009.2,-99.9,29.04,2,33.649,2,39.6
Kaiyo,9511,29,1995,12,23,17,33,10.13,145.584,361.32,2,-9.99,9,-99,-9.9,1009.5,-99.9,29.11,2,-9.999,9,39.7
Kaiyo,9511,30,1995,12,23,17,56,10.063,145.608,-9.99,9,364.33,2,-99,-9.9,1009.3,-99.9,29.1,2,33.695,2,39.7
Kaiyo,9511,31,1995,12,23,18,33,9.955,145.649,361.515,2,-9.99,9,-99,-9.9,1009.5,-99.9,29.08,2,-9.999,9,39.6
Kaiyo,9511,32,1995,12,23,18,56,9.8878,145.675,-9.99,9,364.78,2,-99,-9.9,1009.2,-99.9,29.05,2,33.678,2,39.6
Kaiyo,9511,33,1995,12,23,19,33,9.7788,145.718,361.54,2,-9.99,9,-99,-9.9,1008.9,-99.9,29.04,2,-9.999,9,39.6
Kaiyo,9511,34,1995,12,23,19,56,9.7108,145.744,-9.99,9,366.2,2,-99,-9.9,1009.2,-99.9,29.05,2,33.683,2,39.6
Kaiyo,9511,35,1995,12,23,20,33,9.6032,145.783,361.64,2,-9.99,9,-99,-9.9,1010.3,-99.9,28.98,2,-9.999,9,39.4
Kaiyo,9511,36,1995,12,23,20,56,9.5372,145.806,-9.99,9,371.99,2,-99,-9.9,1010.4,-99.9,28.98,2,33.665,2,39.4
Kaiyo,9511,37,1995,12,23,21,33,9.4292,145.842,361.72,2,-9.99,9,-99,-9.9,1010.7,-99.9,28.96,2,-9.999,9,39.4
Kaiyo,9511,38,1995,12,23,21,56,9.3627,145.866,-9.99,9,367.66,2,-99,-9.9,1011.2,-99.9,29.05,2,33.661,2,39.6
Kaiyo,9511,39,1995,12,23,22,33,9.259,145.899,361.81,2,-9.99,9,-99,-9.9,1012.3,-99.9,29,2,-9.999,9,39.5
Kaiyo,9511,40,1995,12,23,22,56,9.1938,145.921,-9.99,9,370.25,2,-99,-9.9,1012.1,-99.9,29.01,2,33.644,2,39.5
Kaiyo,9511,41,1995,12,23,23,33,9.0927,145.957,362.14,2,-9.99,9,-99,-9.9,1011.7,-99.9,29.08,2,-9.999,9,39.6
Kaiyo,9511,42,1995,12,23,23,56,9.0303,145.98,-9.99,9,360.53,2,-99,-9.9,1011.7,-99.9,29.05,2,33.686,2,39.6
Kaiyo,9511,43,1995,12,24,0,33,8.9302,146.019,362.265,2,-9.99,9,-99,-9.9,1011.5,-99.9,29.09,2,-9.999,9,39.7
Kaiyo,9511,44,1995,12,24,0,56,8.8705,146.044,-9.99,9,361.12,2,-99,-9.9,1011.9,-99.9,29.11,2,33.736,2,39.7
Kaiyo,9511,45,1995,12,24,1,33,8.7707,146.081,362.325,2,-9.99,9,-99,-9.9,1011.4,-99.9,29.1,2,-9.999,9,39.7
Kaiyo,9511,46,1995,12,24,1,56,8.7065,146.107,-9.99,9,356.23,2,-99,-9.9,1011.5,-99.9,29.05,2,33.79,2,39.6
Kaiyo,9511,47,1995,12,24,2,33,8.6028,146.15,361.74,2,-9.99,9,-99,-9.9,1010.1,-99.9,29.14,2,-9.999,9,39.8
Kaiyo,9511,48,1995,12,24,2,56,8.5362,146.173,-9.99,9,356.27,2,-99,-9.9,1008.9,-99.9,29.16,2,33.851,2,39.8
Kaiyo,9511,49,1995,12,24,3,33,8.429,146.209,362.1,2,-9.99,9,-99,-9.9,1008,-99.9,29.05,2,-9.999,9,39.6
Kaiyo,9511,50,1995,12,24,3,56,8.3618,146.232,-9.99,9,357.32,2,-99,-9.9,1006.8,-99.9,29.03,2,33.796,2,39.6
Kaiyo,9511,51,1995,12,24,4,33,8.2535,146.268,362.25,2,-9.99,9,-99,-9.9,1006.6,-99.9,29.05,2,-9.999,9,39.6
Kaiyo,9511,52,1995,12,24,4,56,8.1868,146.294,-9.99,9,357.66,2,-99,-9.9,1007,-99.9,29.03,2,33.73,2,39.6
Kaiyo,9511,53,1995,12,24,5,33,8.0743,146.334,362.015,2,-9.99,9,-99,-9.9,1006.5,-99.9,29.08,2,-9.999,9,39.6
Kaiyo,9511,54,1995,12,24,5,56,8.0055,146.359,-9.99,9,353.59,2,-99,-9.9,1006.9,-99.9,29.1,2,33.693,2,39.7
Kaiyo,9511,55,1995,12,24,6,33,7.8938,146.401,362.185,2,-9.99,9,-99,-9.9,1007.8,-99.9,29.04,2,-9.999,9,39.6
Kaiyo,9511,56,1995,12,24,6,56,7.8227,146.427,-9.99,9,357.15,2,-99,-9.9,1008.2,-99.9,29.12,2,33.754,2,39.7
Kaiyo,9511,57,1995,12,24,7,33,7.711,146.469,361.83,2,-9.99,9,-99,-9.9,1008.6,-99.9,29.12,2,-9.999,9,39.7
Kaiyo,9511,58,1995,12,24,7,56,7.6432,146.493,-9.99,9,353.35,2,-99,-9.9,1009.1,-99.9,29.09,2,33.858,2,39.7
Kaiyo,9511,59,1995,12,24,8,33,7.537,146.535,361.79,2,-9.99,9,-99,-9.9,1008.8,-99.9,29.15,2,-9.999,9,39.8
Kaiyo,9511,60,1995,12,24,8,56,7.4702,146.556,-9.99,9,343.73,2,-99,-9.9,1009,-99.9,29.18,2,33.835,2,39.9
Kaiyo,9511,61,1995,12,24,9,33,7.3547,146.578,361.81,2,-9.99,9,-99,-9.9,1009.4,-99.9,29.29,2,-9.999,9,40.1
Kaiyo,9511,62,1995,12,24,9,56,7.281,146.593,-9.99,9,350.28,2,-99,-9.9,1009.3,-99.9,29.26,2,33.83,2,40.1
Kaiyo,9511,63,1995,12,24,10,33,7.1633,146.618,362.17,2,-9.99,9,-99,-9.9,1009.3,-99.9,29.29,2,-9.999,9,40.1
Kaiyo,9511,64,1995,12,24,10,56,7.0923,146.625,-9.99,9,347.95,2,-99,-9.9,1008.8,-99.9,29.31,2,33.933,2,40.2
Kaiyo,9511,65,1995,12,24,11,33,6.9778,146.634,361.9,2,-9.99,9,-99,-9.9,1008.9,-99.9,29.18,2,-9.999,9,39.9
Kaiyo,9511,66,1995,12,24,11,56,6.9072,146.642,-9.99,9,352.88,2,-99,-9.9,1009,-99.9,29.1,2,33.932,2,39.7
Kaiyo,9511,67,1995,12,24,12,33,6.7925,146.653,361.65,2,-9.99,9,-99,-9.9,1008.8,-99.9,29.17,2,-9.999,9,39.9
Kaiyo,9511,68,1995,12,24,12,56,6.7215,146.663,-9.99,9,355.88,2,-99,-9.9,1008.6,-99.9,29.23,2,33.971,2,40
Kaiyo,9511,69,1995,12,24,13,33,6.6058,146.675,361.57,2,-9.99,9,-99,-9.9,1008.8,-99.9,29.27,2,-9.999,9,40.1
Kaiyo,9511,70,1995,12,24,13,56,6.533,146.681,-9.99,9,359.88,2,-99,-9.9,1008.8,-99.9,29.36,2,34.06,2,40.3
Kaiyo,9511,71,1995,12,24,14,33,6.4187,146.689,361.5,2,-9.99,9,-99,-9.9,1008.6,-99.9,29.2,2,-9.999,9,39.9
Kaiyo,9511,72,1995,12,24,14,56,6.3485,146.698,-9.99,9,363.41,2,-99,-9.9,1008.4,-99.9,29.4,2,34.051,2,40.4
Kaiyo,9511,73,1995,12,24,15,33,6.234,146.712,361.45,2,-9.99,9,-99,-9.9,1008.2,-99.9,29.45,2,-9.999,9,40.5
Kaiyo,9511,74,1995,12,24,15,56,6.163,146.72,-9.99,9,367.83,2,-99,-9.9,1007.8,-99.9,29.49,2,34.048,2,40.6
Kaiyo,9511,75,1995,12,24,16,33,6.0468,146.737,361.55,2,-9.99,9,-99,-9.9,1007.3,-99.9,29.59,2,-9.999,9,40.8
Kaiyo,9511,76,1995,12,24,16,56,5.976,146.747,-9.99,9,369.97,2,-99,-9.9,1006.9,-99.9,29.59,2,34.129,2,40.8
Kaiyo,9511,77,1995,12,24,17,33,5.8615,146.758,361.46,2,-9.99,9,-99,-9.9,1006.6,-99.9,29.59,2,-9.999,9,40.8
Kaiyo,9511,78,1995,12,24,17,56,5.7905,146.769,-9.99,9,369.94,2,-99,-9.9,1006.6,-99.9,29.57,2,34.11,2,40.8
Kaiyo,9511,79,1995,12,24,18,33,5.6763,146.783,361.52,2,-9.99,9,-99,-9.9,1006.7,-99.9,29.64,2,-9.999,9,41
Kaiyo,9511,80,1995,12,24,18,56,5.6048,146.792,-9.99,9,375.78,2,-99,-9.9,1006.7,-99.9,29.72,2,34.143,2,41.1
Kaiyo,9511,81,1995,12,24,19,33,5.4898,146.806,361.47,2,-9.99,9,-99,-9.9,1006.9,-99.9,29.79,2,-9.999,9,41.3
Kaiyo,9511,82,1995,12,24,19,56,5.4177,146.817,-9.99,9,380.01,2,-99,-9.9,1006.8,-99.9,29.77,2,34.242,2,41.3
Kaiyo,9511,83,1995,12,24,20,33,5.2998,146.831,361.57,2,-9.99,9,-99,-9.9,1007.4,-99.9,29.69,2,-9.999,9,41.1
Kaiyo,9511,84,1995,12,24,20,56,5.2267,146.839,-9.99,9,379.05,2,-99,-9.9,1007.6,-99.9,29.73,2,34.213,2,41.2
Kaiyo,9511,85,1995,12,24,21,33,5.1113,146.855,361.56,2,-9.99,9,-99,-9.9,1007.7,-99.9,29.8,2,-9.999,9,41.3
Kaiyo,9511,86,1995,12,24,21,56,5.04,146.865,-9.99,9,378.93,2,-99,-9.9,1008,-99.9,29.79,2,34.201,2,41.3
Kaiyo,9511,87,1995,12,24,22,33,4.9267,146.881,361.7,2,-9.99,9,-99,-9.9,1008.3,-99.9,29.82,2,-9.999,9,41.4
Kaiyo,9511,88,1995,12,24,22,56,4.8557,146.889,-9.99,9,379.7,2,-99,-9.9,1008.3,-99.9,29.85,2,34.147,2,41.5
Kaiyo,9511,89,1995,12,24,23,33,4.7422,146.902,362.17,2,-9.99,9,-99,-9.9,1008.3,-99.9,29.86,2,-9.999,9,41.5
Kaiyo,9511,90,1995,12,24,23,56,4.6717,146.91,-9.99,9,374.48,2,-99,-9.9,1008.3,-99.9,29.91,2,34.119,2,41.6
Kaiyo,9511,91,1995,12,25,0,33,4.5573,146.922,361.89,2,-9.99,9,-99,-9.9,1008.5,-99.9,29.94,2,-9.999,9,41.7
Kaiyo,9511,92,1995,12,25,0,56,4.4852,146.929,-9.99,9,375.44,2,-99,-9.9,1008.2,-99.9,29.98,2,34.127,2,41.8
Kaiyo,9511,93,1995,12,25,1,33,4.3723,146.947,361.62,2,-9.99,9,-99,-9.9,1007.8,-99.9,30.02,2,-9.999,9,41.9
Kaiyo,9511,94,1995,12,25,1,56,4.3012,146.956,-9.99,9,376.38,2,-99,-9.9,1007.4,-99.9,30,2,34.171,2,41.8
Kaiyo,9511,95,1995,12,25,2,33,4.1863,146.971,362.04,2,-9.99,9,-99,-9.9,1007,-99.9,30,2,-9.999,9,41.8
Kaiyo,9511,96,1995,12,25,2,56,4.1152,146.98,-9.99,9,376.67,2,-99,-9.9,1006.9,-99.9,30.03,2,34.141,2,41.9
Kaiyo,9511,97,1995,12,25,3,33,4.0047,146.998,362.45,2,-9.99,9,-99,-9.9,1006.4,-99.9,30.03,2,-9.999,9,41.9
Kaiyo,9511,98,1995,12,25,3,56,4.0003,147.001,-9.99,9,376.4,2,-99,-9.9,1006.2,-99.9,30.03,2,34.113,2,41.9
Kaiyo,9511,99,1995,12,25,4,33,4.0078,147.002,362.25,2,-9.99,9,-99,-9.9,1006.1,-99.9,30.04,2,-9.999,9,41.9
Kaiyo,9511,100,1995,12,25,4,56,4.0052,147.005,-9.99,9,374.86,2,-99,-9.9,1006.4,-99.9,30,2,34.089,2,41.8
Kaiyo,9511,101,1995,12,25,5,33,4.0008,147.008,362.14,2,-9.99,9,-99,-9.9,1006.2,-99.9,30.02,2,-9.999,9,41.9
Kaiyo,9511,102,1995,12,25,5,56,3.9973,147.012,-9.99,9,375.48,2,-99,-9.9,1006.1,-99.9,30.03,2,34.092,2,41.9
Kaiyo,9511,103,1995,12,25,6,33,3.9528,147.012,361.75,2,-9.99,9,-99,-9.9,1006.7,-99.9,29.98,2,-9.999,9,41.8
Kaiyo,9511,104,1995,12,25,6,56,3.8765,147.008,-9.99,9,373.34,2,-99,-9.9,1007,-99.9,30.04,2,34.096,2,41.9
Kaiyo,9511,105,1995,12,25,7,33,3.755,146.996,361.695,2,-9.99,9,-99,-9.9,1007.2,-99.9,29.99,2,-9.999,9,41.8
Kaiyo,9511,106,1995,12,25,7,56,3.6798,146.993,-9.99,9,370.38,2,-99,-9.9,1007.8,-99.9,29.86,2,34.079,2,41.5
Kaiyo,9511,107,1995,12,25,8,33,3.5597,146.99,361.61,2,-9.99,9,-99,-9.9,1008.4,-99.9,29.76,2,-9.999,9,41.2
Kaiyo,9511,108,1995,12,25,8,56,3.4862,146.991,-9.99,9,364.76,2,-99,-9.9,1008.3,-99.9,29.77,2,33.952,2,41.3
Kaiyo,9511,109,1995,12,25,9,33,3.3673,146.994,361.73,2,-9.99,9,-99,-9.9,1008.7,-99.9,29.78,2,-9.999,9,41.3
Kaiyo,9511,110,1995,12,25,9,56,3.2933,146.996,-9.99,9,364.31,2,-99,-9.9,1009,-99.9,29.76,2,33.939,2,41.2
Kaiyo,9511,111,1995,12,25,10,33,3.1743,147,361.95,2,-9.99,9,-99,-9.9,1009.1,-99.9,29.77,2,-9.999,9,41.3
Kaiyo,9511,112,1995,12,25,10,56,3.0995,147.002,-9.99,9,363.87,2,-99,-9.9,1009.6,-99.9,29.75,2,33.962,2,41.2
Kaiyo,9511,113,1995,12,25,11,33,2.976,146.995,362.02,2,-9.99,9,-99,-9.9,1009.6,-99.9,29.76,2,-9.999,9,41.2
Kaiyo,9511,114,1995,12,25,11,56,2.8995,146.995,-9.99,9,362.1,2,-99,-9.9,1009.4,-99.9,29.82,2,33.872,2,41.4
Kaiyo,9511,115,1995,12,25,12,33,2.7753,146.997,361.52,2,-9.99,9,-99,-9.9,1009.4,-99.9,29.67,2,-9.999,9,41
Kaiyo,9511,116,1995,12,25,12,56,2.6995,146.998,-9.99,9,361.35,2,-99,-9.9,1009.3,-99.9,29.77,2,33.788,2,41.3
Kaiyo,9511,117,1995,12,25,13,33,2.5747,146.997,361.58,2,-9.99,9,-99,-9.9,1009.6,-99.9,29.72,2,-9.999,9,41.1
Kaiyo,9511,118,1995,12,25,13,56,2.4968,146.996,-9.99,9,357.74,2,-99,-9.9,1009.3,-99.9,29.7,2,33.835,2,41.1
Kaiyo,9511,119,1995,12,25,14,33,2.3702,146.996,361.53,2,-9.99,9,-99,-9.9,1008.9,-99.9,29.73,2,-9.999,9,41.2
Kaiyo,9511,120,1995,12,25,14,56,2.2927,146.996,-9.99,9,361.98,2,-99,-9.9,1008.8,-99.9,29.77,2,33.798,2,41.3
Kaiyo,9511,121,1995,12,25,15,33,2.1682,146.996,361.61,2,-9.99,9,-99,-9.9,1008.7,-99.9,29.74,2,-9.999,9,41.2
Kaiyo,9511,122,1995,12,25,15,56,2.0923,146.997,-9.99,9,364.53,2,-99,-9.9,1008.8,-99.9,29.74,2,33.865,2,41.2
Kaiyo,9511,123,1995,12,25,16,33,1.9687,146.997,361.52,2,-9.99,9,-99,-9.9,1008.6,-99.9,29.75,2,-9.999,9,41.2
Kaiyo,9511,124,1995,12,25,16,56,1.8912,146.996,-9.99,9,363.34,2,-99,-9.9,1008.4,-99.9,29.91,2,33.862,2,41.6
Kaiyo,9511,125,1995,12,25,17,33,1.7665,146.996,361.43,2,-9.99,9,-99,-9.9,1008.3,-99.9,29.75,2,-9.999,9,41.2
Kaiyo,9511,126,1995,12,25,17,56,1.6897,146.997,-9.99,9,359.42,2,-99,-9.9,1008.1,-99.9,29.64,2,33.851,2,41
Kaiyo,9511,127,1995,12,25,18,33,1.5638,146.999,361.28,2,-9.99,9,-99,-9.9,1007.6,-99.9,29.92,2,-9.999,9,41.6
Kaiyo,9511,128,1995,12,25,18,56,1.4858,147,-9.99,9,365.76,2,-99,-9.9,1007.8,-99.9,29.87,2,33.792,2,41.5
Kaiyo,9511,129,1995,12,25,19,33,1.3577,146.999,361.37,2,-9.99,9,-99,-9.9,1008,-99.9,29.84,2,-9.999,9,41.4
Kaiyo,9511,130,1995,12,25,19,56,1.2778,146.999,-9.99,9,363.44,2,-99,-9.9,1008.3,-99.9,29.91,2,33.799,2,41.6
Kaiyo,9511,131,1995,12,25,20,33,1.1482,147,361.47,2,-9.99,9,-99,-9.9,1009.1,-99.9,29.96,2,-9.999,9,41.7
Kaiyo,9511,132,1995,12,25,20,56,1.0667,147.002,-9.99,9,374.16,2,-99,-9.9,1009.5,-99.9,30.01,2,33.946,2,41.8
Kaiyo,9511,133,1995,12,25,21,33,0.93767,147.003,361.39,2,-9.99,9,-99,-9.9,1010.3,-99.9,29.98,2,-9.999,9,41.8
Kaiyo,9511,134,1995,12,25,21,56,0.858,147.002,-9.99,9,374.97,2,-99,-9.9,1010.7,-99.9,30.04,2,34.072,2,41.9
Kaiyo,9511,135,1995,12,25,22,33,0.72617,146.999,361.49,2,-9.99,9,-99,-9.9,1010.8,-99.9,30.1,2,-9.999,9,42.1
Kaiyo,9511,136,1995,12,25,22,56,0.64317,146.997,-9.99,9,382.33,2,-99,-9.9,1011.2,-99.9,29.98,2,34.191,2,41.8
Kaiyo,9511,137,1995,12,25,23,33,0.5095,146.999,361.68,2,-9.99,9,-99,-9.9,1011,-99.9,29.85,2,-9.999,9,41.5
Kaiyo,9511,138,1995,12,25,23,56,0.426,147.001,-9.99,9,379.58,2,-99,-9.9,1010.8,-99.9,29.84,2,34.276,2,41.4
Kaiyo,9511,139,1995,12,26,0,33,0.29,147.006,361.52,2,-9.99,9,-99,-9.9,1010.4,-99.9,29.76,2,-9.999,9,41.2
Kaiyo,9511,140,1995,12,26,0,56,0.206,147.007,-9.99,9,376.36,2,-99,-9.9,1009.9,-99.9,29.78,2,34.225,2,41.3
Kaiyo,9511,141,1995,12,26,1,33,0.074667,147.004,361.45,2,-9.99,9,-99,-9.9,1008.6,-99.9,29.68,2,-9.999,9,41.1
Kaiyo,9511,142,1995,12,26,1,56,0.002,147.001,-9.99,9,375.02,2,-99,-9.9,1008,-99.9,29.61,2,34.325,2,40.9
Kaiyo,9511,143,1995,12,26,2,33,-0.0066667,147.004,361.72,2,-9.99,9,-99,-9.9,1007.3,-99.9,29.63,2,-9.999,9,40.9
Kaiyo,9511,144,1995,12,26,2,56,-0.0076667,147.007,-9.99,9,376.16,2,-99,-9.9,1007.3,-99.9,29.61,2,34.311,2,40.9
Kaiyo,9511,145,1995,12,26,3,33,-0.003,147.02,362.105,2,-9.99,9,-99,-9.9,1007.5,-99.9,29.62,2,-9.999,9,40.9
Kaiyo,9511,146,1995,12,26,3,56,-0.0021667,147.027,-9.99,9,376.72,2,-99,-9.9,1007.5,-99.9,29.63,2,34.305,2,40.9
Kaiyo,9511,147,1995,12,26,4,33,-0.0035,147.088,362.135,2,-9.99,9,-99,-9.9,1007.4,-99.9,29.66,2,-9.999,9,41
Kaiyo,9511,148,1995,12,26,4,56,-0.0041667,147.173,-9.99,9,376.39,2,-99,-9.9,1007.5,-99.9,29.73,2,34.325,2,41.2
Kaiyo,9511,149,1995,12,26,5,33,-0.0018333,147.309,361.77,2,-9.99,9,-99,-9.9,1007.5,-99.9,29.73,2,-9.999,9,41.2
Kaiyo,9511,150,1995,12,26,5,56,-0.0006667,147.393,-9.99,9,379.1,2,-99,-9.9,1007.8,-99.9,29.77,2,-9.999,9,41.3
Kaiyo,9511,151,1995,12,26,6,33,0.0011667,147.527,361.49,2,-9.99,9,-99,-9.9,1007.9,-99.9,29.74,2,-9.999,9,41.2
Kaiyo,9511,152,1995,12,26,6,56,0.00033333,147.611,-9.99,9,377.33,2,-99,-9.9,1008.2,-99.9,29.76,2,34.356,2,41.2
Kaiyo,9511,153,1995,12,26,7,33,-0.0016667,147.746,361.37,2,-9.99,9,-99,-9.9,1008.8,-99.9,29.8,2,-9.999,9,41.3
Kaiyo,9511,154,1995,12,26,7,56,0.0005,147.829,-9.99,9,378.62,2,-99,-9.9,1008.8,-99.9,29.76,2,34.41,2,41.2
Kaiyo,9511,155,1995,12,26,8,33,0,147.965,361.36,2,-9.99,9,-99,-9.9,1009.1,-99.9,29.77,2,-9.999,9,41.3
Kaiyo,9511,156,1995,12,26,8,56,0.00033333,148.048,-9.99,9,377.76,2,-99,-9.9,1009.4,-99.9,29.76,2,34.397,2,41.2
Kaiyo,9511,157,1995,12,26,9,33,0.00066667,148.179,361.34,2,-9.99,9,-99,-9.9,1009.7,-99.9,29.76,2,-9.999,9,41.2
Kaiyo,9511,158,1995,12,26,9,56,0.0015,148.261,-9.99,9,374.74,2,-99,-9.9,1010.1,-99.9,29.72,2,34.341,2,41.1
Kaiyo,9511,159,1995,12,26,10,33,-0.0013333,148.393,361.845,2,-9.99,9,-99,-9.9,1010.3,-99.9,29.78,2,-9.999,9,41.3
Kaiyo,9511,160,1995,12,26,10,56,-0.0021667,148.476,-9.99,9,373.2,2,-99,-9.9,1010.5,-99.9,29.75,2,34.348,2,41.2
Kaiyo,9511,161,1995,12,26,11,33,-0.0015,148.611,361.59,2,-9.99,9,-99,-9.9,1010.4,-99.9,29.73,2,-9.999,9,41.2
Kaiyo,9511,162,1995,12,26,11,56,-0.0016667,148.695,-9.99,9,373.07,2,-99,-9.9,1010.7,-99.9,29.73,2,34.304,2,41.2
Kaiyo,9511,163,1995,12,26,12,33,-0.0008333,148.828,361.51,2,-9.99,9,-99,-9.9,1010.4,-99.9,29.75,2,-9.999,9,41.2
Kaiyo,9511,164,1995,12,26,12,56,-0.0001667,148.91,-9.99,9,373.01,2,-99,-9.9,1010.6,-99.9,29.73,2,34.311,2,41.2
Kaiyo,9511,165,1995,12,26,13,33,0.00016667,149.043,361.42,2,-9.99,9,-99,-9.9,1010.5,-99.9,29.64,2,-9.999,9,41
Kaiyo,9511,166,1995,12,26,13,56,-0.0003333,149.126,-9.99,9,371.93,2,-99,-9.9,1010.7,-99.9,29.64,2,34.287,2,41
Kaiyo,9511,167,1995,12,26,14,33,-0.0003333,149.26,361.42,2,-9.99,9,-99,-9.9,1009.7,-99.9,29.6,2,-9.999,9,40.9
Kaiyo,9511,168,1995,12,26,14,56,-0.0001667,149.344,-9.99,9,368.83,2,-99,-9.9,1009.7,-99.9,29.62,2,34.21,2,40.9
Kaiyo,9511,169,1995,12,26,15,33,0.0056667,149.48,361.42,2,-9.99,9,-99,-9.9,1009.4,-99.9,29.7,2,-9.999,9,41.1
Kaiyo,9511,170,1995,12,26,15,56,0.0031667,149.564,-9.99,9,373.07,2,-99,-9.9,1009.2,-99.9,29.69,2,34.331,2,41.1
Kaiyo,9511,171,1995,12,26,16,33,-0.0006667,149.702,361.52,2,-9.99,9,-99,-9.9,1008.9,-99.9,29.68,2,-9.999,9,41.1
Kaiyo,9511,172,1995,12,26,16,56,-0.0011667,149.788,-9.99,9,375.28,2,-99,-9.9,1009.1,-99.9,29.76,2,34.33,2,41.2
Kaiyo,9511,173,1995,12,26,17,33,-0.0025,149.925,361.46,2,-9.99,9,-99,-9.9,1008.6,-99.9,29.69,2,-9.999,9,41.1
Kaiyo,9511,174,1995,12,26,17,56,-0.0038333,150.01,-9.99,9,377.03,2,-99,-9.9,1008.8,-99.9,29.75,2,34.278,2,41.2
Kaiyo,9511,175,1995,12,26,18,33,-0.003,150.147,361.42,2,-9.99,9,-99,-9.9,1008.7,-99.9,29.76,2,-9.999,9,41.2
Kaiyo,9511,176,1995,12,26,18,56,-0.0003333,150.231,-9.99,9,376.98,2,-99,-9.9,1009.3,-99.9,29.81,2,34.294,2,41.4
Kaiyo,9511,177,1995,12,26,19,33,0.00083333,150.366,361.485,2,-9.99,9,-99,-9.9,1009.1,-99.9,29.82,2,-9.999,9,41.4
Kaiyo,9511,178,1995,12,26,19,56,-0.0003333,150.451,-9.99,9,376.25,2,-99,-9.9,1009.4,-99.9,29.84,2,34.281,2,41.4
Kaiyo,9511,179,1995,12,26,20,33,-0.0001667,150.588,361.57,2,-9.99,9,-99,-9.9,1010,-99.9,29.84,2,-9.999,9,41.4
Kaiyo,9511,180,1995,12,26,20,56,0,150.674,-9.99,9,375.83,2,-99,-9.9,1010.1,-99.9,29.78,2,34.278,2,41.3
Kaiyo,9511,181,1995,12,26,21,33,0.00016667,150.812,361.53,2,-9.99,9,-99,-9.9,1010.3,-99.9,29.82,2,-9.999,9,41.4
Kaiyo,9511,182,1995,12,26,21,56,0.00066667,150.897,-9.99,9,374.56,2,-99,-9.9,1010.6,-99.9,29.81,2,34.17,2,41.4
Kaiyo,9511,183,1995,12,26,22,33,0.0005,151.003,361.81,2,-9.99,9,-99,-9.9,1010.7,-99.9,29.77,2,-9.999,9,41.3
Kaiyo,9511,184,1995,12,26,22,56,0.0035,151.011,-9.99,9,375.99,2,-99,-9.9,1011.1,-99.9,29.78,2,34.199,2,41.3
Kaiyo,9511,185,1995,12,26,23,33,0.001,151.005,362.02,2,-9.99,9,-99,-9.9,1010.9,-99.9,29.79,2,-9.999,9,41.3
Kaiyo,9511,186,1995,12,26,23,56,0.00066667,151.002,-9.99,9,375.13,2,-99,-9.9,1010.9,-99.9,29.77,2,34.2,2,41.3
Kaiyo,9511,187,1995,12,27,0,33,0.011833,151.008,362.1,2,-9.99,9,-99,-9.9,1010.4,-99.9,29.78,2,-9.999,9,41.3
Kaiyo,9511,188,1995,12,27,0,56,0.02,151.013,-9.99,9,376.68,2,-99,-9.9,1010.6,-99.9,29.82,2,34.209,2,41.4
Kaiyo,9511,189,1995,12,27,1,33,0.026167,151.026,386.86,4,-9.99,9,-99,-9.9,1010.3,-99.9,29.83,2,-9.999,9,41.4
Kaiyo,9511,190,1995,12,27,1,56,0.019833,151.034,-9.99,9,377.46,2,-99,-9.9,1010.1,-99.9,29.88,2,34.224,2,41.5
Kaiyo,9511,191,1995,12,27,2,33,0.0095,151.065,362.41,2,-9.99,9,-99,-9.9,1009.8,-99.9,29.86,2,-9.999,9,41.5
Kaiyo,9511,192,1995,12,27,2,56,0.0011667,151.14,-9.99,9,377.97,2,-99,-9.9,1009.5,-99.9,29.86,2,34.215,2,41.5
Kaiyo,9511,193,1995,12,27,3,33,-0.001,151.261,361.74,2,-9.99,9,-99,-9.9,1009.3,-99.9,29.78,2,-9.999,9,41.3
Kaiyo,9511,194,1995,12,27,3,56,-0.0008333,151.335,-9.99,9,373.4,2,-99,-9.9,1009,-99.9,29.79,2,34.241,2,41.3
Kaiyo,9511,195,1995,12,27,4,33,0.00066667,151.457,361.93,2,-9.99,9,-99,-9.9,1009.1,-99.9,29.82,2,-9.999,9,41.4
Kaiyo,9511,196,1995,12,27,4,56,0.0013333,151.533,-9.99,9,373.23,2,-99,-9.9,1009,-99.9,29.82,2,34.309,2,41.4
Kaiyo,9511,197,1995,12,27,5,33,0.0013333,151.655,361.815,2,-9.99,9,-99,-9.9,1009.4,-99.9,29.82,2,-9.999,9,41.4
Kaiyo,9511,198,1995,12,27,5,56,0.0005,151.731,-9.99,9,372.43,2,-99,-9.9,1009.3,-99.9,29.81,2,34.302,2,41.4
Kaiyo,9511,199,1995,12,27,6,33,0,151.854,361.96,2,-9.99,9,-99,-9.9,1009.6,-99.9,29.75,2,-9.999,9,41.2
Kaiyo,9511,200,1995,12,27,6,56,-0.0006667,151.932,-9.99,9,370.37,2,-99,-9.9,1010.1,-99.9,29.74,2,34.252,2,41.2
Kaiyo,9511,201,1995,12,27,7,33,-0.0025,152.055,361.52,2,-9.99,9,-99,-9.9,1010.2,-99.9,29.68,2,-9.999,9,41.1
Kaiyo,9511,202,1995,12,27,7,56,-0.0011667,152.132,-9.99,9,370.8,2,-99,-9.9,1010.4,-99.9,29.77,2,34.223,2,41.3
Kaiyo,9511,203,1995,12,27,8,33,0.00066667,152.256,361.5,2,-9.99,9,-99,-9.9,1010.6,-99.9,29.79,2,-9.999,9,41.3
Kaiyo,9511,204,1995,12,27,8,56,0.00033333,152.333,-9.99,9,372.38,2,-99,-9.9,1010.7,-99.9,29.85,2,34.334,2,41.5
Kaiyo,9511,205,1995,12,27,9,33,0.001,152.458,361.55,2,-9.99,9,-99,-9.9,1010.8,-99.9,29.81,2,-9.999,9,41.4
Kaiyo,9511,206,1995,12,27,9,56,0.0023333,152.535,-9.99,9,371.45,2,-99,-9.9,1011.1,-99.9,29.79,2,34.357,2,41.3
Kaiyo,9511,207,1995,12,27,10,33,0.0048333,152.661,361.36,2,-9.99,9,-99,-9.9,1011,-99.9,29.82,2,-9.999,9,41.4
Kaiyo,9511,208,1995,12,27,10,56,0.006,152.738,-9.99,9,370.29,2,-99,-9.9,1011,-99.9,29.85,2,34.362,2,41.5
Kaiyo,9511,209,1995,12,27,11,33,0.0063333,152.863,361.22,2,-9.99,9,-99,-9.9,1011.4,-99.9,29.89,2,-9.999,9,41.6
Kaiyo,9511,210,1995,12,27,11,56,0.0051667,152.939,-9.99,9,370.82,2,-99,-9.9,1011.4,-99.9,29.89,2,34.394,2,41.6
Kaiyo,9511,211,1995,12,27,12,33,0.003,153.063,361.375,2,-9.99,9,-99,-9.9,1011.2,-99.9,29.83,2,-9.999,9,41.4
Kaiyo,9511,212,1995,12,27,12,56,0.0011667,153.139,-9.99,9,368.46,2,-99,-9.9,1011.5,-99.9,29.77,2,34.298,2,41.3
Kaiyo,9511,213,1995,12,27,13,33,-0.0011667,153.262,361.43,2,-9.99,9,-99,-9.9,1011,-99.9,29.76,2,-9.999,9,41.2
Kaiyo,9511,214,1995,12,27,13,56,-0.0016667,153.338,-9.99,9,368.33,2,-99,-9.9,1011,-99.9,29.72,2,34.257,2,41.1
Kaiyo,9511,215,1995,12,27,14,33,-0.0021667,153.461,361.39,2,-9.99,9,-99,-9.9,1010.1,-99.9,29.82,2,-9.999,9,41.4